| time (UTC) | temp F | wind direction | speed knots | gust knots | rain 1hr in | rain 24hr in | rain mn in | humidity % | barometer mb |
| 20260505225159 | 76 | 202 | 1.7 | 5.2 | 0.00 | 0.00 | 0.00 | 35 | 1006.5 |
| 20260505172433 | 80 | 186 | 3.5 | 11.3 | 0.00 | 0.00 | 0.00 | 37 | 1008.2 |
| 20260505171455 | 80 | 231 | 4.3 | 9.6 | 0.00 | 0.00 | 0.00 | 37 | 1008.3 |
| 20260505170548 | 79 | 196 | 3.5 | 10.4 | 0.00 | 0.00 | 0.00 | 40 | 1008.5 |
| 20260505165625 | 79 | 185 | 2.6 | 10.4 | 0.00 | 0.00 | 0.00 | 37 | 1008.6 |
| 20260505164700 | 78 | 197 | 3.5 | 8.7 | 0.00 | 0.00 | 0.00 | 37 | 1008.8 |
| 20260505163737 | 79 | 245 | 4.3 | 8.7 | 0.00 | 0.00 | 0.00 | 37 | 1008.9 |
| 20260505162629 | 78 | 214 | 4.3 | 9.6 | 0.00 | 0.00 | 0.00 | 36 | 1009.0 |
| 20260505161837 | 80 | 220 | 3.5 | 7.8 | 0.00 | 0.00 | 0.00 | 40 | 1009.1 |
| 20260505152501 | 77 | 239 | 4.3 | 10.4 | 0.00 | 0.00 | 0.00 | 39 | 1009.3 |
| 20260505151509 | 77 | 206 | 3.5 | 8.7 | 0.00 | 0.00 | 0.00 | 41 | 1009.3 |
| 20260505115402 | 61 | 191 | 1.7 | 6.1 | 0.00 | 0.00 | 0.00 | 61 | 1010.7 |
| 20260505114444 | 60 | 198 | 0.9 | 3.5 | 0.00 | 0.00 | 0.00 | 64 | 1010.7 |
| 20260505111438 | 58 | 189 | 0.9 | 3.5 | 0.00 | 0.00 | 0.00 | 66 | 1010.6 |
| 20260505082214 | 60 | 163 | 0.9 | 3.5 | 0.00 | 0.00 | 0.00 | 63 | 1009.4 |
| 20260505080435 | 60 | 192 | 0.9 | 2.6 | 0.00 | 0.00 | 0.00 | 62 | 1009.2 |
| 20260505071026 | 62 | 189 | 0.9 | 3.5 | 0.00 | 0.00 | 0.00 | 59 | 1008.9 |
| 20260505063844 | 63 | 194 | 1.7 | 5.2 | 0.00 | 0.00 | 0.00 | 56 | 1008.9 |
| 20260505055719 | 63 | 192 | 0.9 | 3.5 | 0.00 | 0.00 | 0.00 | 58 | 1009.0 |
| 20260505051603 | 63 | 177 | 0.9 | 4.3 | 0.00 | 0.00 | 0.00 | 56 | 1009.1 |
| 20260505034333 | 63 | 191 | 0.9 | 3.5 | 0.00 | 0.00 | 0.00 | 54 | 1008.8 |
| 20260505032716 | 63 | 180 | 0.9 | 2.6 | 0.00 | 0.00 | 0.00 | 52 | 1008.8 |
| 20260505032547 | 63 | 180 | 0.9 | 2.6 | 0.00 | 0.00 | 0.00 | 52 | 1008.8 |
| 20260505025613 | 63 | 178 | 0.9 | 3.5 | 0.00 | 0.00 | 0.00 | 52 | 1008.8 |
| 20260505023739 | 64 | 175 | 0.9 | 2.6 | 0.00 | 0.00 | 0.00 | 50 | 1008.9 |
| 20260505020936 | 64 | 137 | 0.0 | 0.9 | 0.00 | 0.00 | 0.00 | 49 | 1008.7 |
| 20260505015108 | 65 | 184 | 0.0 | 1.7 | 0.00 | 0.00 | 0.00 | 48 | 1008.7 |
| 20260505013238 | 65 | 192 | 0.9 | 1.7 | 0.00 | 0.00 | 0.00 | 48 | 1008.6 |
| 20260505011540 | 65 | 156 | 0.9 | 1.7 | 0.00 | 0.00 | 0.00 | 46 | 1008.3 |
| 20260505005715 | 66 | 161 | 0.9 | 1.7 | 0.00 | 0.00 | 0.00 | 46 | 1008.0 |
| 20260505003711 | 67 | 170 | 0.9 | 1.7 | 0.00 | 0.00 | 0.00 | 44 | 1007.9 |
| 20260505001841 | 67 | 172 | 0.9 | 2.6 | 0.00 | 0.00 | 0.00 | 43 | 1007.9 |
| 20260505000013 | 68 | 175 | 0.9 | 1.7 | 0.00 | 0.00 | 0.00 | 42 | 1007.8 |
| 20260504234130 | 69 | 162 | 0.9 | 1.7 | 0.00 | 0.00 | 0.00 | 40 | 1007.4 |
| 20260504232300 | 70 | 162 | 0.9 | 2.6 | 0.00 | 0.00 | 0.00 | 39 | 1007.4 |